User: anonymous   Login
Location: Unspecified
(0.0000°N, 0.0000°E)
Time: 02:28:15
(UTC+02:00)
Language:

CZ-2C R/B - Orbit

View from above orbital plane
View from above orbital plane
View from above satellite
View from above satellite

Ground track
Ground track

The orbit data is extracted from the following two-line orbital elements,

1 28480U 04046B   18111.27296292 -.00000012 +00000-0 +10778-4 0  9998
2 28480 098.1779 192.4506 0142639 035.7187 000.5017 14.25670605698112
Epoch (UTC): 21 April 2018 06:33:03
Eccentricity: 0.0142639
inclination: 98.1779°
perigee height: 704 km
apogee height: 909 km
right ascension of ascending node: 192.4506°
argument of perigee: 35.7187°
revolutions per day: 14.25670605
mean anomaly at epoch: 0.5017°
orbit number at epoch: 69811

The dashed part of the orbit path shows where the satellite is in the earth's shadow,  

DLR